User: anonymous   Login
Location: Unspecified
(0.0000°N, 0.0000°E)
Time: 03:49:08
(UTC+00:00)
Language:

Hubble Space Telescope - Orbit

View from above orbital plane
View from above orbital plane
View from above satellite
View from above satellite

Ground track
Ground track

The orbit data is extracted from the following two-line orbital elements,

1 20580U 90037B   21165.86501687  .00000493  00000-0  18832-4 0  9992
2 20580  28.4702  82.2048 0002747  39.2609  14.3216 15.09658682510860
Epoch (UTC): 14 June 2021 20:45:37
Eccentricity: 0.0002747
inclination: 28.4702°
perigee height: 535 km
apogee height: 539 km
right ascension of ascending node: 82.2048°
argument of perigee: 39.2609°
revolutions per day: 15.09658682
mean anomaly at epoch: 14.3216°
orbit number at epoch: 51086

The dashed part of the orbit path shows where the satellite is in the earth's shadow,  

DLR